Location: Diguira
(13.1838°N, 4.9109°W)
Time: 16:47:06
(UTC+00:00)

Meteor 2-11 Rocket - Pass Details

Date: 18 September 2020
Orbit: 939 x 957 km, 82.5° (Epoch: 24 October)

Event Time Altitude Azimuth Distance (km) Brightness Sun altitude
Rises 18:33:53 0° 177° (S) 3,611 7.4 -4.6°
Reaches altitude 10° 18:36:23 10° 174° (S) 2,669 6.7 -5.2°
Maximum altitude 18:42:26 65° 93° (E) 1,038 4.5 -6.7°
Drops below altitude 10° 18:48:29 10° 12° (NNE) 2,680 6.7 -8.2°
Sets 18:51:00 0° 10° (N) 3,627 7.4 -8.8°
